Date String (YYYY-MM-DD hh:mm:ss) UTC,Instrument flags,absolute air pressure of the measurement (hPa),sample flow rate (lpm),inlet stack bypass flow (lpm),air temperature of the measurement (°C),ambient temperature measured by the external sensor (°C),aerosol sample conditioner tube jacket temperature (°C),OPC LED temperature (°C),internal box temperature (°C),relative humidity of the measurement (%),span deviation,mass concentration of particles derived from Lorenz-Mie calculation of OPC scattering (μg/m³),mass concentration of particles derived from Lorenz-Mie calculation of OPC scattering (μg/m³),mass concentration of particles derived from Lorenz-Mie calculation of OPC scattering (μg/m³)
DateTimeUTC,F1_M11,P_M11,Q1_M11,Q2_M11,T1_M11,T2_M11,T3_M11,T4_M11,T5_M11,U1_M11,ZSPAN_M11,X0_M11,X2_M11,X1_M11
2023-12-03 17:00:00,SystemResetWarning,0824.9,5.00,000.00,019.0,018.2,000.0,027.2,020.2,24.8,0000.0,0006.00,0001.86,0001.28
2023-12-03 17:01:00,SystemResetWarning,0824.9,5.00,000.00,019.0,018.2,000.0,027.2,020.2,24.9,0000.0,0006.29,0001.86,0001.29
2023-12-03 17:02:00,SystemResetWarning,0824.8,5.01,000.00,019.0,018.2,000.0,027.3,020.2,25.0,0000.0,0006.55,0001.83,0001.27
2023-12-03 17:03:00,SystemResetWarning,0824.9,5.00,000.00,019.0,018.2,000.0,027.3,020.2,24.9,0000.0,0006.60,0001.83,0001.26
2023-12-03 17:04:00,SystemResetWarning,0824.9,5.00,000.00,019.0,018.2,000.0,027.3,020.2,24.5,0000.0,0006.73,0001.84,0001.24
2023-12-03 17:05:00,SystemResetWarning,0824.9,5.01,000.00,019.0,018.2,000.0,027.3,020.2,24.7,0000.0,0006.78,0001.81,0001.22
2023-12-03 17:06:00,SystemResetWarning,0824.9,5.01,000.00,019.0,018.2,000.0,027.3,020.1,24.7,0000.0,0006.86,0001.81,0001.21
2023-12-03 17:07:00,SystemResetWarning,0824.9,5.00,000.00,018.9,018.2,000.0,027.3,020.1,24.6,0000.0,0007.14,0001.83,0001.20
2023-12-03 17:08:00,SystemResetWarning,0824.9,5.01,000.00,018.9,018.2,000.0,027.3,020.1,24.4,0000.0,0006.44,0001.79,0001.20
2023-12-03 17:09:00,SystemResetWarning,0824.9,5.01,000.00,018.9,018.2,000.0,027.3,020.2,24.3,0000.0,0005.71,0001.77,0001.21
2023-12-03 17:10:00,SystemResetWarning,0824.9,4.98,000.00,018.9,018.1,000.0,027.3,020.2,24.1,0000.0,0004.67,0001.79,0001.21
2023-12-03 17:11:00,SystemResetWarning,0824.9,5.00,000.00,018.9,018.1,000.0,027.3,020.1,24.0,0000.0,0004.34,0001.74,0001.19
2023-12-03 17:12:00,SystemResetWarning,0824.9,5.00,000.00,018.9,018.1,000.0,027.3,020.1,24.0,0000.0,0004.20,0001.74,0001.19
2023-12-03 17:13:00,SystemResetWarning,0825.0,5.00,000.00,018.9,018.1,000.0,027.3,020.1,24.1,0000.0,0004.16,0001.73,0001.18
2023-12-03 17:14:00,SystemResetWarning,0825.0,4.99,000.00,018.9,018.1,000.0,027.3,020.1,23.8,0000.0,0005.30,0001.70,0001.17
2023-12-03 17:15:00,SystemResetWarning,0825.0,5.00,000.00,018.9,018.1,000.0,027.3,020.1,23.3,0000.0,0005.36,0001.68,0001.16
2023-12-03 17:16:00,SystemResetWarning,0825.0,5.00,000.00,018.9,018.0,000.0,027.3,020.0,23.3,0000.0,0005.84,0001.69,0001.15
2023-12-03 17:17:00,SystemResetWarning,0825.0,5.01,000.00,018.9,018.0,000.0,027.2,020.0,23.0,0000.0,0005.89,0001.64,0001.13
2023-12-03 17:18:00,SystemResetWarning,0825.0,5.00,000.00,018.9,018.0,000.0,027.2,020.0,23.1,0000.0,0005.43,0001.59,0001.11
2023-12-03 17:19:00,SystemResetWarning,0825.0,5.00,000.00,018.8,018.0,000.0,027.2,020.0,22.6,0000.0,0005.66,0001.62,0001.08
2023-12-03 17:20:00,SystemResetWarning,0825.0,5.00,000.00,018.8,018.0,000.0,027.2,020.0,22.4,0000.0,0006.55,0001.60,0001.04
2023-12-03 17:21:00,SystemResetWarning,0825.0,5.00,000.00,018.8,018.0,000.0,027.2,020.0,22.5,0000.0,0006.93,0001.58,0001.03
2023-12-03 17:22:00,SystemResetWarning,0825.1,5.00,000.00,018.8,017.9,000.0,027.2,020.0,22.7,0000.0,0007.00,0001.57,0001.01
2023-12-03 17:23:00,SystemResetWarning,0825.1,5.00,000.00,018.8,017.9,000.0,027.2,020.0,22.8,0000.0,0008.06,0001.53,0000.98
2023-12-03 17:24:00,SystemResetWarning,0825.1,5.00,000.00,018.8,017.9,000.0,027.2,020.0,22.4,0000.0,0007.91,0001.51,0000.97
2023-12-03 17:25:00,SystemResetWarning,0825.1,5.00,000.00,018.8,017.9,000.0,027.2,020.0,22.7,0000.0,0007.53,0001.54,0000.95
2023-12-03 17:26:00,SystemResetWarning,0825.1,5.00,000.00,018.8,017.9,000.0,027.2,020.0,22.9,0000.0,0007.45,0001.55,0000.93
2023-12-03 17:27:00,SystemResetWarning,0825.1,5.00,000.00,018.8,017.9,000.0,027.2,020.0,23.2,0000.0,0007.47,0001.51,0000.89
2023-12-03 17:28:00,SystemResetWarning,0825.1,5.00,000.00,018.8,017.9,000.0,027.2,020.0,23.4,0000.0,0008.23,0001.49,0000.86
2023-12-03 17:29:00,SystemResetWarning,0825.1,5.00,000.00,018.8,017.9,000.0,027.2,020.0,23.2,0000.0,0008.61,0001.48,0000.84
2023-12-03 17:30:00,SystemResetWarning,0825.1,5.00,000.00,018.8,017.9,000.0,027.2,020.0,23.4,0000.0,0008.46,0001.38,0000.83
2023-12-03 17:31:00,SystemResetWarning,0825.2,5.00,000.00,018.8,017.9,000.0,027.2,020.0,22.7,0000.0,0008.04,0001.31,0000.81
2023-12-03 17:32:00,SystemResetWarning,0825.2,5.00,000.00,018.8,017.9,000.0,027.2,020.0,21.6,0000.0,0007.74,0001.31,0000.78
2023-12-03 17:33:00,SystemResetWarning,0825.2,5.00,000.00,018.8,017.9,000.0,027.2,020.0,21.3,0000.0,0007.74,0001.32,0000.78
2023-12-03 17:34:00,SystemResetWarning,0825.2,5.00,000.00,018.8,017.9,000.0,027.2,020.0,21.2,0000.0,0008.00,0001.37,0000.79
2023-12-03 17:35:00,SystemResetWarning,0825.2,5.00,000.00,018.8,017.9,000.0,027.2,020.0,21.1,0000.0,0007.71,0001.45,0000.80
2023-12-03 17:36:00,SystemResetWarning,0825.2,5.00,000.00,018.8,017.9,000.0,027.2,020.0,21.3,0000.0,0007.62,0001.43,0000.80
2023-12-03 17:37:00,SystemResetWarning,0825.2,4.99,000.00,018.8,017.9,000.0,027.2,020.0,21.0,0000.0,0007.52,0001.42,0000.82
2023-12-03 17:38:00,SystemResetWarning,0825.1,5.00,000.00,018.8,017.8,000.0,027.2,020.0,21.2,0000.0,0007.23,0001.44,0000.83
2023-12-03 17:39:00,SystemResetWarning,0825.1,5.01,000.00,018.8,017.8,000.0,027.2,020.0,21.3,0000.0,0006.18,0001.46,0000.81
2023-12-03 17:40:00,SystemResetWarning,0825.2,5.00,000.00,018.8,017.8,000.0,027.2,020.0,21.3,0000.0,0005.74,0001.48,0000.79
2023-12-03 17:41:00,SystemResetWarning,0825.2,5.00,000.00,018.8,017.8,000.0,027.2,020.0,21.9,0000.0,0007.66,0001.48,0000.76
2023-12-03 17:42:00,SystemResetWarning,0825.2,5.00,000.00,018.8,017.8,000.0,027.2,020.0,22.4,0000.0,0008.15,0001.46,0000.72
2023-12-03 17:43:00,SystemResetWarning,0825.2,4.99,000.00,018.8,017.8,000.0,027.2,020.0,22.3,0000.0,0008.09,0001.40,0000.69
2023-12-03 17:44:00,SystemResetWarning,0825.2,5.00,000.00,018.8,017.8,000.0,027.2,020.0,22.1,0000.0,0007.96,0001.33,0000.65
2023-12-03 17:45:00,SystemResetWarning,0825.2,5.00,000.00,018.8,017.8,000.0,027.2,020.0,22.2,0000.0,0007.19,0001.27,0000.60
2023-12-03 17:46:00,SystemResetWarning,0825.2,4.99,000.00,018.8,017.8,000.0,027.2,020.0,22.1,0000.0,0007.47,0001.19,0000.55
2023-12-03 17:47:00,SystemResetWarning,0825.2,5.00,000.00,018.8,017.8,000.0,027.2,020.0,22.0,0000.0,0007.53,0001.14,0000.50
2023-12-03 17:48:00,SystemResetWarning,0825.2,5.00,000.00,018.8,017.8,000.0,027.2,020.0,22.3,0000.0,0007.40,0001.03,0000.44
2023-12-03 17:49:00,SystemResetWarning,0825.2,5.00,000.00,018.7,017.7,000.0,027.2,020.0,21.8,0000.0,0007.33,0000.97,0000.41
2023-12-03 17:50:00,SystemResetWarning,0825.2,5.00,000.00,018.7,017.7,000.0,027.2,020.0,22.1,0000.0,0006.90,0000.94,0000.40
2023-12-03 17:51:00,SystemResetWarning,0825.1,5.00,000.00,018.7,017.7,000.0,027.2,020.0,22.7,0000.0,0006.32,0000.88,0000.39
2023-12-03 17:52:00,SystemResetWarning,0825.1,5.00,000.00,018.7,017.7,000.0,027.2,020.0,21.9,0000.0,0004.02,0000.85,0000.38
2023-12-03 17:53:00,SystemResetWarning,0825.2,5.00,000.00,018.7,017.7,000.0,027.2,020.0,21.1,0000.0,0003.02,0000.84,0000.38
2023-12-03 17:54:00,SystemResetWarning,0825.1,5.00,000.00,018.7,017.7,000.0,027.2,020.0,20.2,0000.0,0002.98,0000.81,0000.37
2023-12-03 17:55:00,SystemResetWarning,0825.1,5.00,000.00,018.7,017.7,000.0,027.2,020.0,19.7,0000.0,0003.01,0000.82,0000.37
2023-12-03 17:56:00,SystemResetWarning,0825.1,5.00,000.00,018.8,017.7,000.0,027.2,020.0,19.4,0000.0,0002.42,0000.80,0000.38
2023-12-03 17:57:00,SystemResetWarning,0825.1,5.00,000.00,018.8,017.7,000.0,027.2,020.0,19.9,0000.0,0001.83,0000.77,0000.39
2023-12-03 17:58:00,SystemResetWarning,0825.2,5.00,000.00,018.7,017.7,000.0,027.2,020.0,19.7,0000.0,0001.57,0000.74,0000.40
2023-12-03 17:59:00,SystemResetWarning,0825.2,5.00,000.00,018.7,017.7,000.0,027.2,020.0,19.5,0000.0,0001.72,0000.80,0000.42
